www.pogodaiklimat.ru

Погода и климат >> Архив погоды >> Австралия >> Rowley Shoals


ПОГОДА в Rowley Shoals

  • Прогноз погоды в Rowley Shoals
  • Монитор погоды в Rowley Shoals
  • Климат города

АРХИВ ПОГОДЫ в Rowley Shoals

Время (UTC), дата Ветер
(напр.,м/с)
 
Видим.   Явления Облачность Т
(С)
Тd
(С)
f
(%)
Тe
(С)
Тes
(С)
Комфортность P
(гПа)
Po
(гПа)
Тmin
(С)
Tmax
(С)
R
(мм)
R24
(мм)
S
(см)
22 13.01 С 5 н/о н/о +29.2 +24 +24 комфорт 1006.8 1006.0
23 13.01 СВ 5 н/о н/о +29.2 +24 +24 комфорт 1007.2 1006.4
00 14.01 СВ 6 н/о н/о +29.3 +24 +24 комфорт 1007.5 1006.7
02 14.01 СВ 8 н/о н/о +29.6 +25 +25 комфорт 1007.6 1006.8
01 14.01 СВ 7 н/о н/о +29.5 +24 +24 комфорт 1007.6 1006.8
03 14.01 С 7 н/о н/о +29.7 +25 +25 комфорт 1007.5 1006.7
04 14.01 СВ 7 н/о н/о +29.8 +25 +25 комфорт 1007.0 1006.2
05 14.01 СВ 7 н/о н/о +29.8 +25 +25 комфорт 1006.4 1005.6
06 14.01 СВ 7 н/о н/о +29.7 +25 +25 комфорт 1005.8 1005.0
08 14.01 СВ 7 н/о н/о +29.7 +25 +25 комфорт 1005.3 1004.5
07 14.01 СВ 7 н/о н/о +29.8 +25 +25 комфорт 1005.4 1004.6
09 14.01 СВ 7 н/о н/о +29.7 +25 +25 комфорт 1005.2 1004.4
10 14.01 СВ 6 н/о н/о +29.6 +25 +25 комфорт 1005.2 1004.4
11 14.01 СВ 5 н/о н/о +29.4 +24 +24 комфорт 1005.8 1005.0
12 14.01 СВ 4 н/о н/о +29.6 +25 +25 комфорт 1006.6 1005.8
14 14.01 СВ 5 н/о н/о +29.4 +24 +24 комфорт 1007.8 1007.0
13 14.01 СВ 4 н/о н/о +29.6 +25 +25 комфорт 1007.5 1006.7
15 14.01 СВ 5 н/о н/о +29.3 +24 +24 комфорт 1007.5 1006.7
16 14.01 СВ 5 н/о н/о +29.3 +24 +24 комфорт 1007.2 1006.4
17 14.01 СВ 5 н/о н/о +29.2 +24 +24 комфорт 1006.5 1005.7
18 14.01 СВ 5 н/о н/о +29.2 +24 +24 комфорт 1005.8 1005.0
20 14.01 СВ 4 н/о н/о +29.2 +24 +24 комфорт 1005.5 1004.7
19 14.01 СВ 4 н/о н/о +29.3 +24 +24 комфорт 1005.4 1004.6
21 14.01 СВ 3 н/о н/о +29.1 +24 +24 комфорт 1005.6 1004.8
22 14.01 СВ 4 н/о н/о +29.1 +24 +24 комфорт 1006.2 1005.4
23 14.01 СВ 5 н/о н/о +29.3 +24 +24 комфорт 1006.5 1005.7
00 15.01 В 5 н/о н/о +29.4 +24 +24 комфорт 1007.1 1006.3
02 15.01 В 5 н/о н/о +29.3 +24 +24 комфорт 1006.9 1006.1
01 15.01 СВ 5 н/о н/о +29.3 +24 +24 комфорт 1007.1 1006.3
03 15.01 В 6 н/о н/о +29.3 +24 +24 комфорт 1006.5 1005.7
04 15.01 В 5 н/о н/о +29.4 +24 +24 комфорт 1006.2 1005.4
05 15.01 В 6 н/о н/о +29.6 +25 +25 комфорт 1006.0 1005.2
06 15.01 В 6 н/о н/о +29.6 +25 +25 комфорт 1005.5 1004.7
08 15.01 В 5 н/о н/о +29.8 +25 +25 комфорт 1003.3 1002.5
07 15.01 В 6 н/о н/о +29.7 +25 +25 комфорт 1004.3 1003.5
09 15.01 В 5 н/о н/о +29.6 +25 +25 комфорт 1004.0 1003.2
10 15.01 В 5 н/о н/о +29.6 +25 +25 комфорт 1004.7 1003.9
11 15.01 СВ 5 н/о н/о +29.6 +25 +25 комфорт 1005.7 1004.9
12 15.01 СВ 6 н/о н/о +29.7 +25 +25 комфорт 1005.8 1005.0
14 15.01 СВ 5 н/о н/о +29.6 +25 +25 комфорт 1006.6 1005.8
13 15.01 СВ 6 н/о н/о +29.7 +25 +25 комфорт 1006.0 1005.2
15 15.01 В 5 н/о н/о +29.6 +25 +25 комфорт 1006.8 1006.0
16 15.01 СВ 6 н/о н/о +29.4 +24 +24 комфорт 1005.7 1004.9
17 15.01 СВ 6 н/о н/о +29.4 +24 +24 комфорт 1005.3 1004.5
18 15.01 СВ 5 н/о н/о +29.4 +24 +24 комфорт 1005.0 1004.2
20 15.01 В 5 н/о н/о +29.6 +25 +25 комфорт 1005.0 1004.2
19 15.01 В 5 н/о н/о +29.5 +24 +24 комфорт 1004.7 1003.9
21 15.01 В 5 н/о н/о +29.4 +24 +24 комфорт 1005.4 1004.6
22 15.01 В 6 н/о н/о +29.4 +24 +24 комфорт 1005.9 1005.1
23 15.01 ЮВ 7 н/о н/о +28.9 +24 +24 комфорт 1005.8 1005.0
00 16.01 В 7 н/о н/о +29.1 +24 +24 комфорт 1006.0 1005.2
02 16.01 В 6 н/о н/о +29.2 +24 +24 комфорт 1006.2 1005.4
01 16.01 В 7 н/о н/о +29.1 +24 +24 комфорт 1006.1 1005.3
03 16.01 В 6 н/о н/о +29.3 +24 +24 комфорт 1006.0 1005.2
04 16.01 В 6 н/о н/о +29.3 +24 +24 комфорт 1005.6 1004.8
05 16.01 В 6 н/о н/о +29.7 +25 +25 комфорт 1004.9 1004.1
06 16.01 В 6 н/о н/о +29.3 +24 +24 комфорт 1004.4 1003.6
08 16.01 В 5 н/о н/о +29.7 +25 +25 комфорт 1003.9 1003.1
07 16.01 В 6 н/о н/о +29.5 +24 +24 комфорт 1004.1 1003.3
09 16.01 В 5 н/о н/о +29.3 +24 +24 комфорт 1003.8 1003.0
10 16.01 В 6 н/о н/о +29.3 +24 +24 комфорт 1004.1 1003.3
11 16.01 В 4 н/о н/о +29.5 +24 +24 комфорт 1004.9 1004.1
12 16.01 В 5 н/о н/о +29.4 +24 +24 комфорт 1005.3 1004.5
14 16.01 СВ 4 н/о н/о +29.7 +25 +25 комфорт 1006.7 1005.9
13 16.01 СВ 4 н/о н/о +29.5 +24 +24 комфорт 1006.1 1005.3
15 16.01 СВ 4 н/о н/о +29.6 +25 +25 комфорт 1006.6 1005.8
16 16.01 С 4 н/о н/о +29.5 +24 +24 комфорт 1005.8 1005.0
17 16.01 С 5 н/о н/о +29.5 +24 +24 комфорт 1005.1 1004.3
18 16.01 С 5 н/о н/о +29.2 +24 +24 комфорт 1004.5 1003.7
20 16.01 СЗ 3 н/о н/о +29.3 +24 +24 комфорт 1004.4 1003.6
19 16.01 С 4 н/о н/о +29.3 +24 +24 комфорт 1004.4 1003.6
21 16.01 СЗ 3 н/о н/о +29.2 +24 +24 комфорт 1004.9 1004.1
22 16.01 СЗ 2 н/о н/о +29.3 +24 +24 комфорт 1005.1 1004.3
23 16.01 СЗ 2 н/о н/о +29.2 +24 +24 комфорт 1005.2 1004.4
00 17.01 штиль 0 н/о н/о +29.8 +25 +25 комфорт 1005.9 1005.1
02 17.01 ЮЗ 2 н/о н/о +29.9 +25 +25 комфорт 1006.6 1005.8
01 17.01 штиль 0 н/о н/о +30.2 +25 +25 комфорт 1006.6 1005.8
03 17.01 штиль 0 н/о н/о +29.7 +25 +25 комфорт 1005.9 1005.1
04 17.01 ЮВ 1 н/о н/о +29.9 +25 +25 комфорт 1005.7 1004.9
05 17.01 Ю 1 н/о н/о +30.6 +25 +25 комфорт 1005.1 1004.3
06 17.01 Ю 2 н/о н/о +29.9 +25 +25 комфорт 1004.7 1003.9
08 17.01 Ю 2 н/о н/о +30.1 +25 +25 комфорт 1003.2 1002.4
07 17.01 Ю 2 н/о н/о +30.8 +26 +26 жарко 1004.0 1003.2
09 17.01 ЮЗ 2 н/о н/о +29.9 +25 +25 комфорт 1003.1 1002.3
10 17.01 Ю 4 н/о н/о +29.7 +25 +25 комфорт 1003.3 1002.5
11 17.01 Ю 3 н/о н/о +29.6 +25 +25 комфорт 1004.2 1003.4
12 17.01 Ю 2 н/о н/о +29.7 +25 +25 комфорт 1005.0 1004.2
14 17.01 В 1 н/о н/о +29.5 +24 +24 комфорт 1006.1 1005.3
13 17.01 В 2 н/о н/о +29.6 +25 +25 комфорт 1005.9 1005.1
15 17.01 В 2 н/о н/о +29.5 +24 +24 комфорт 1006.0 1005.2
16 17.01 В 2 н/о н/о +29.4 +24 +24 комфорт 1005.6 1004.8
17 17.01 В 2 н/о н/о +29.3 +24 +24 комфорт 1005.1 1004.3
18 17.01 СВ 2 н/о н/о +29.2 +24 +24 комфорт 1004.7 1003.9
20 17.01 С 2 н/о н/о +29.2 +24 +24 комфорт 1004.5 1003.7
19 17.01 СВ 2 н/о н/о +29.1 +24 +24 комфорт 1004.5 1003.7
21 17.01 С 1 н/о н/о +29.2 +24 +24 комфорт 1004.9 1004.1
22 17.01 штиль 0 н/о н/о +29.4 +24 +24 комфорт 1005.4 1004.6
23 17.01 С 2 н/о н/о +29.8 +25 +25 комфорт 1005.7 1004.9
00 18.01 СЗ 2 н/о н/о +30.0 +25 +25 комфорт 1005.8 1005.0
02 18.01 З 2 н/о н/о +29.8 +25 +25 комфорт 1006.0 1005.2
01 18.01 СЗ 2 н/о н/о +30.0 +25 +25 комфорт 1006.2 1005.4
03 18.01 З 3 н/о н/о +29.8 +25 +25 комфорт 1006.0 1005.2
04 18.01 З 3 н/о н/о +29.9 +25 +25 комфорт 1005.8 1005.0
05 18.01 З 5 н/о н/о +29.3 +24 +24 комфорт 1005.7 1004.9
06 18.01 З 4 н/о н/о +29.6 +25 +25 комфорт 1005.3 1004.5
08 18.01 ЮЗ 3 н/о н/о +29.3 +24 +24 комфорт 1004.2 1003.4
07 18.01 ЮЗ 5 н/о н/о +29.0 +24 +24 комфорт 1004.6 1003.8
09 18.01 ЮЗ 2 н/о н/о +29.8 +25 +25 комфорт 1004.3 1003.5
10 18.01 ЮЗ 3 н/о н/о +29.8 +25 +25 комфорт 1004.7 1003.9
11 18.01 З 3 н/о н/о +29.7 +25 +25 комфорт 1005.4 1004.6
12 18.01 З 2 н/о н/о +29.9 +25 +25 комфорт 1005.9 1005.1
14 18.01 Ю 2 н/о н/о +29.7 +25 +25 комфорт 1007.2 1006.4
13 18.01 З 2 н/о н/о +29.7 +25 +25 комфорт 1006.4 1005.6
15 18.01 Ю 2 н/о н/о +29.7 +25 +25 комфорт 1007.1 1006.3
16 18.01 ЮЗ 2 н/о н/о +29.5 +24 +24 комфорт 1006.4 1005.6
17 18.01 ЮЗ 3 н/о н/о +29.6 +25 +25 комфорт 1005.9 1005.1
18 18.01 ЮЗ 4 н/о н/о +29.5 +24 +24 комфорт 1005.2 1004.4
20 18.01 ЮЗ 3 н/о н/о +29.4 +24 +24 комфорт 1005.4 1004.6
19 18.01 ЮЗ 3 н/о н/о +29.5 +24 +24 комфорт 1004.9 1004.1
21 18.01 ЮЗ 5 н/о н/о +29.4 +24 +24 комфорт 1005.3 1004.5
22 18.01 ЮЗ 5 н/о н/о +29.4 +24 +24 комфорт 1006.0 1005.2
23 18.01 ЮЗ 4 н/о н/о +29.6 +25 +25 комфорт 1006.5 1005.7
00 19.01 Ю 3 н/о н/о +30.0 +25 +25 комфорт 1007.0 1006.2
02 19.01 Ю 3 н/о н/о +30.0 +25 +25 комфорт 1007.0 1006.2
01 19.01 Ю 3 н/о н/о +30.4 +25 +25 комфорт 1007.3 1006.5
03 19.01 ЮВ 4 н/о н/о +30.0 +25 +25 комфорт 1007.0 1006.2
04 19.01 ЮВ 3 н/о н/о +30.0 +25 +25 комфорт 1006.2 1005.4
05 19.01 Ю 1 н/о н/о +30.3 +25 +25 комфорт 1005.4 1004.6
06 19.01 Ю 2 н/о н/о +30.3 +25 +25 комфорт 1004.7 1003.9
08 19.01 Ю 3 н/о н/о +30.5 +25 +25 комфорт 1003.7 1002.9
07 19.01 Ю 3 н/о н/о +30.2 +25 +25 комфорт 1004.2 1003.4
09 19.01 ЮЗ 3 н/о н/о +30.3 +25 +25 комфорт 1003.8 1003.0
10 19.01 ЮЗ 3 н/о н/о +30.2 +25 +25 комфорт 1004.1 1003.3
11 19.01 ЮЗ 3 н/о н/о +30.0 +25 +25 комфорт 1004.8 1004.0
12 19.01 ЮЗ 3 н/о н/о +30.0 +25 +25 комфорт 1005.3 1004.5
14 19.01 ЮЗ 3 н/о н/о +30.0 +25 +25 комфорт 1006.1 1005.3
13 19.01 ЮЗ 3 н/о н/о +30.0 +25 +25 комфорт 1005.8 1005.0
15 19.01 ЮЗ 3 н/о н/о +29.9 +25 +25 комфорт 1005.9 1005.1
16 19.01 ЮЗ 5 н/о н/о +29.9 +25 +25 комфорт 1005.5 1004.7
17 19.01 З 5 н/о н/о +30.0 +25 +25 комфорт 1004.8 1004.0
18 19.01 З 5 н/о н/о +29.6 +25 +25 комфорт 1003.9 1003.1
20 19.01 ЮЗ 6 н/о н/о +29.6 +25 +25 комфорт 1004.0 1003.2
19 19.01 З 6 н/о н/о +29.7 +25 +25 комфорт 1003.8 1003.0
21 19.01 ЮЗ 6 н/о н/о +29.5 +24 +24 комфорт 1004.5 1003.7
22 19.01 ЮЗ 6 н/о н/о +29.5 +24 +24 комфорт 1004.8 1004.0
23 19.01 ЮЗ 6 н/о н/о +29.5 +24 +24 комфорт 1005.4 1004.6
00 20.01 В 14 н/о н/о +25.9 +22 +22 комфорт 1007.7 1006.9
02 20.01 ЮВ 5 н/о н/о +27.0 +22 +22 комфорт 1006.2 1005.4
01 20.01 Ю 4 н/о н/о +25.8 +21 +21 комфорт 1007.5 1006.7
03 20.01 ЮВ 5 н/о н/о +28.2 +23 +23 комфорт 1004.7 1003.9
04 20.01 В 2 н/о н/о +28.6 +24 +24 комфорт 1003.6 1002.8
05 20.01 В 3 н/о н/о +29.2 +24 +24 комфорт 1003.3 1002.5
06 20.01 Ю 5 н/о н/о +29.0 +24 +24 комфорт 1003.0 1002.2
08 20.01 ЮВ 3 н/о н/о +29.5 +24 +24 комфорт 1002.5 1001.7
07 20.01 Ю 3 н/о н/о +29.3 +24 +24 комфорт 1002.5 1001.7
09 20.01 ЮВ 1 н/о н/о +29.8 +25 +25 комфорт 1002.3 1001.5
10 20.01 штиль 0 н/о н/о +30.7 +26 +26 жарко 1002.7 1001.9
11 20.01 штиль 0 н/о н/о +29.2 +24 +24 комфорт 1003.3 1002.5
12 20.01 ЮЗ 1 н/о н/о +29.2 +24 +24 комфорт 1004.4 1003.6
14 20.01 штиль 0 н/о н/о +29.1 +24 +24 комфорт 1005.0 1004.2
13 20.01 штиль 0 н/о н/о +29.0 +24 +24 комфорт 1004.5 1003.7
15 20.01 СЗ 2 н/о н/о +29.1 +24 +24 комфорт 1004.9 1004.1
16 20.01 С 2 н/о н/о +29.0 +24 +24 комфорт 1004.5 1003.7
17 20.01 С 3 н/о н/о +29.1 +24 +24 комфорт 1004.1 1003.3
18 20.01 СЗ 3 н/о н/о +29.0 +24 +24 комфорт 1003.3 1002.5
20 20.01 Ю 2 н/о н/о +28.9 +24 +24 комфорт 1003.5 1002.7
19 20.01 СЗ 4 н/о н/о +28.9 +24 +24 комфорт 1003.0 1002.2
21 20.01 Ю 3 н/о н/о +29.0 +24 +24 комфорт 1003.9 1003.1

 

Местоположение метеостанции Rowley Shoals (Западная Австралия, Австралия): широта -17.53 долгота 118.95 высота над уровнем моря 8 м.

В архиве по умолчанию представлена погода в Rowley Shoals за последнюю неделю. Архивные данные за месяц целиком и за предыдущие месяцы, начиная с января 2011 года, Вы можете получить, выбрав интересующий диапазон дат из раскрывающегося списка и нажав кнопку "Ввод!".

Внимание! Время в таблицах - всемирное. Для получения местного времени необходимо прибавить поправку, которая в Rowley Shoals равна 8 ч.

Смотрите также архив погоды в соседних городах и на ближайших метеорологических станциях:

Погода в Mandora (Западная Австралия, Австралия) (316 км)
Погода в Port Hedland Apardoo (Западная Австралия, Австралия) (317 км)
Погода в Broome Airport (Западная Австралия, Австралия) (351 км)
Погода в West Roebuck (Западная Австралия, Австралия) (359 км)
Погода в Roebourne Aero (Западная Австралия, Австралия) (405 км)
Погода в Marble Bar (Западная Австралия, Австралия) (415 км)
Погода в Karratha Aero (Западная Австралия, Австралия) (422 км)
Погода в Varanus Island (Западная Австралия, Австралия) (497 км)
Погода в Derby Aero (Северная территория, Австралия) (500 км)
Погода в Adele Island (Западная Австралия, Австралия) (501 км)

Пояснения к столбцам:

Ветер - указаны скорость ветра в м/с - средняя за 10 мин, порывы в срок и между сроками (в фигурных скобках) и направление, откуда дует ветер: С - северный, СВ - северо-восточный, В - восточный, ЮВ - юго-восточный, Ю - южный, ЮЗ - юго-западный, З - западный, СЗ - северо-западный.
Видимость - горизонтальная дальность видимости в метрах или километрах. При видимости от 1 до 10 км при отсутствии осадков обычно наблюдается дымка, при ухудшении видимости до 1 км и менее - туман. В сухую погоду видимость может ухудшаться дымом, пылью или мглою.
Явления - указаны атмосферные явления, наблюдавшиеся в срок или в последний час перед сроком; фигурными скобками обозначены явления, наблюдавшиеся между сроками (за 1-3 часа до срока); квадратными скобками обозначены град или гололедные отложения с указанием их диаметра в мм.
Облачность - указаны через наклонную черту общая и нижняя облачность в баллах и высота нижней границы облаков в метрах; квадратными скобками обозначены формы облаков: Ci - перистые, Cs - перисто-слоистые, Cc - перисто-кучевые, Ac - высококучевые, As - высокослоистые, Sc - слоисто-кучевые, Ns - слоисто-дождевые, Cu - кучевые, Cb - кучево-дождевые. Подробнее классификацию облаков см. в Атласе облаков (PDF).
T - Температура воздуха - температура, измеренная на высоте 2 м над землей.
Td - Температура точки росы - температура, при понижении до которой содержащийся в воздухе водяной пар достигнет насыщения.
f - Относительная влажность воздуха - влажноcть воздуха, измеренная на высоте 2 м над землей.
Te - Эффективная температура - температура, которую ощущает одетый по сезону человек в тени. Характеристика душности погоды. При расчете учитывается влияние влажности воздуха и скорости ветра на теплоощущения человека.
Tes - Эффективная температура на солнце - температура, которую ощущает человек, с поправкой на солнечный нагрев. Характеристика знойности погоды. Зависит от высоты солнца над горизонтом, облачности и скорости ветра. Ночью, в пасмурную погоду, а также при ветре 12 м/с и более поправка равна нулю.
P - Атмосферное давление - приведенное к уровню моря атмосферное давление.
Po - Атмосферное давление - измеренное на уровне метеостанции атмосферное давление.
Tmin - Минимальная температура - минимум температуры воздуха на высоте 2 м над землей.
Tmax - Максимальная температура - максимум температуры воздуха на высоте 2 м над землей.
R - Количество осадков - Количество выпавших осадков за период времени, мм. При наведении курсора мыши на число - период времени, за который выпало указанное количество осадков.
R24 - Количество осадков - Количество выпавших осадков за 24 часа, мм.
S - Снежный покров - Высота снежного покрова, см. При наведении курсора мыши на число - состояние снежного покрова и степень покрытия местности в баллах.